Nouasseur, Morocco

2:55 AM WET on May 22, 2018 (GMT +0000)
Nouasseur

Weather History for GMMN - December, 2012

Change the Weather History Date:

Thursday, December 13, 2012

  Actual Average Record
Temperature  
Mean Temperature 54 °F -  
Max Temperature 64 °F 62 °F 73 °F (2015)
Min Temperature 44 °F 43 °F 37 °F (2005)
Degree Days  
Heating Degree Days 11    
Growing Degree Days 4 (Base 50)    
Moisture  
Dew Point 50 °F    
Average Humidity 86    
Maximum Humidity 100    
Minimum Humidity 49    
Precipitation  
Precipitation 0.00 in - - ()
Sea Level Pressure  
Sea Level Pressure 30.07 in    
Wind  
Wind Speed 5 mph ()    
Max Wind Speed 9 mph    
Max Gust Speed -    
Visibility 4.2 miles    
Events Fog    
Averages and records for this station are not official NWS values.
T = Trace of Precipitation, MM = Missing Value Source: Averaged Metar Reports

Daily Weather History Graph

Daily Weather History Graph

Search for Another Location

Airport or City:

Astronomy

Dec. 13, 2012 Rise Set
Actual Time 7:25 AM WET 5:23 PM WET
Civil Twilight 6:58 AM WET 5:51 PM WET
Nautical Twilight 6:27 AM WET 6:22 PM WET
Astronomical Twilight 5:56 AM WET 6:52 PM WET
Moon 7:20 AM WET (12/13) 5:49 PM WET (12/13)
Length of Visible Light 10h 53m
Length of Day
9h 58m
New Moon, 0% of the Moon is Illuminated
Dec 13
New Moon
Dec 20
First Quarter
Dec 28
Full
Jan 5
Last Quarter
Jan 11
New

Hourly Weather History & Observations

Time (WET) Temp. Dew Point Humidity Pressure Visibility Wind Dir Wind Speed Gust Speed Precip Events Conditions
12:00 AM 49 °F 48 °F 94% 30.06 in 0 mi SSW 4.6 mph - - Fog Partial Fog
12:00 AM 50.0 °F 50.0 °F 100% 30.04 in 0.2 mi SSW 4.6 mph - N/A Fog Fog
12:30 AM 50.0 °F 48.2 °F 94% 30.04 in 0.3 mi SW 5.8 mph - N/A Fog Fog
1:00 AM 50.0 °F 48.2 °F 94% 30.04 in 0.2 mi South 5.8 mph - N/A Fog Fog
1:30 AM 50.0 °F 48.2 °F 94% 30.01 in 0.2 mi SSW 4.6 mph - N/A Fog Fog
2:00 AM 50.0 °F 50.0 °F 100% 30.04 in 0.2 mi SW 5.8 mph - N/A Fog Fog
2:30 AM 50.0 °F 50.0 °F 100% 30.01 in 0.2 mi SSW 6.9 mph - N/A Fog Fog
3:00 AM 51 °F 50 °F 97% 30.04 in 0 mi SW 8.1 mph - - Fog Fog
3:00 AM 51.8 °F 50.0 °F 94% 30.01 in 0.3 mi SW 8.1 mph - N/A Fog Fog
3:30 AM 51.8 °F 50.0 °F 94% 30.01 in - SSW 6.9 mph - N/A Fog Fog
4:00 AM 51.8 °F 50.0 °F 94% 30.01 in - SSW 5.8 mph - N/A Fog Fog
4:30 AM 51.8 °F 50.0 °F 94% 30.01 in 0.4 mi South 5.8 mph - N/A   Mostly Cloudy
5:00 AM 51.8 °F 50.0 °F 94% 30.01 in - SW 4.6 mph - N/A   Mostly Cloudy
5:30 AM 51.8 °F 50.0 °F 94% 30.01 in - SSW 4.6 mph - N/A   Light Drizzle
6:00 AM 51 °F 51 °F 99% 30.04 in 2 mi South 6.9 mph - -   Mist
6:00 AM 51.8 °F 50.0 °F 94% 30.04 in - South 6.9 mph - N/A   Mostly Cloudy
6:30 AM 51.8 °F 51.8 °F 100% 30.04 in - South 4.6 mph - N/A   Mostly Cloudy
7:00 AM 51.8 °F 50.0 °F 94% 30.04 in - South 5.8 mph - N/A   Mostly Cloudy
7:30 AM 51.8 °F 50.0 °F 94% 30.06 in 2.2 mi South 8.1 mph - N/A   Mostly Cloudy
8:00 AM 50.0 °F 50.0 °F 100% 30.06 in 2.5 mi South 6.9 mph - N/A   Mostly Cloudy
8:30 AM 51.8 °F 50.0 °F 94% 30.06 in - South 6.9 mph - N/A   Mostly Cloudy
9:00 AM 52 °F 51 °F 97% 30.10 in 4 mi South 6.9 mph - -   Clear
9:00 AM 51.8 °F 51.8 °F 100% 30.09 in 3.7 mi South 6.9 mph - N/A   Mostly Cloudy
9:15 AM 51.8 °F 50.0 °F 94% 30.09 in 3.7 mi South 8.1 mph - N/A   Mostly Cloudy
9:30 AM 53.6 °F 51.8 °F 94% 30.09 in 5.0 mi South 6.9 mph - N/A   Mostly Cloudy
10:00 AM 53.6 °F 51.8 °F 94% 30.09 in 5.6 mi South 8.1 mph - N/A   Mostly Cloudy
10:30 AM 53.6 °F 51.8 °F 94% 30.09 in 6.2 mi South 8.1 mph - N/A   Mostly Cloudy
11:00 AM 55.4 °F 53.6 °F 94% 30.09 in 6.2 mi South 9.2 mph - N/A   Mostly Cloudy
11:30 AM 57.2 °F 55.4 °F 94% 30.09 in 6.2 mi SSW 5.8 mph - N/A   Scattered Clouds
12:00 PM 59 °F 56 °F 85% 30.11 in 6 mi WSW 5.8 mph - -   Clear
12:00 PM 59.0 °F 55.4 °F 88% 30.09 in 6.2 mi WSW 5.8 mph - N/A   Scattered Clouds
12:30 PM 60.8 °F 55.4 °F 82% 30.09 in 6.2 mi SW 3.5 mph - N/A   Scattered Clouds
1:00 PM 62.6 °F 51.8 °F 68% 30.09 in 6.2 mi SW 3.5 mph - N/A   Mostly Cloudy
1:30 PM 64.4 °F 53.6 °F 68% 30.06 in 6.2 mi West 3.5 mph - N/A   Mostly Cloudy
2:00 PM 64.4 °F 51.8 °F 64% 30.06 in 6.2 mi Variable 2.3 mph - N/A   Mostly Cloudy
2:30 PM 64.4 °F 50.0 °F 59% 30.06 in 6.2 mi NW 6.9 mph - N/A   Mostly Cloudy
3:00 PM 64 °F 50 °F 49% 30.07 in 6 mi WSW 4.6 mph - -   Mostly Cloudy
3:00 PM - - N/A% - 6.2 mi WSW 4.6 mph - N/A   Mostly Cloudy
3:30 PM 64.4 °F 51.8 °F 64% 30.06 in 6.2 mi SW 4.6 mph - N/A   Scattered Clouds
4:00 PM 64.4 °F 50.0 °F 59% 30.06 in 6.2 mi WSW 4.6 mph - N/A   Scattered Clouds
4:30 PM 64.4 °F 50.0 °F 59% 30.06 in 6.2 mi West 4.6 mph - N/A   Scattered Clouds
5:00 PM 62.6 °F 50.0 °F 63% 30.06 in 6.2 mi West 3.5 mph - N/A   Scattered Clouds
5:30 PM 60.8 °F 50.0 °F 68% 30.09 in 6.2 mi West 1.2 mph - N/A   Scattered Clouds
6:00 PM 59 °F 50 °F 65% 30.10 in 6 mi West 1.2 mph - -   Partly Cloudy
6:00 PM 59.0 °F 50.0 °F 72% 30.09 in 6.2 mi West 1.2 mph - N/A   Scattered Clouds
6:30 PM 57.2 °F 50.0 °F 77% 30.09 in 6.2 mi WNW 5.8 mph - N/A   Scattered Clouds
7:00 PM 55.4 °F 50.0 °F 82% 30.09 in 6.2 mi NNW 5.8 mph - N/A   Scattered Clouds
7:30 PM 55.4 °F 50.0 °F 82% 30.12 in 6.2 mi NNW 5.8 mph - N/A   Scattered Clouds
8:00 PM 55.4 °F 50.0 °F 82% 30.12 in 6.2 mi NNW 2.3 mph - N/A   Scattered Clouds
8:30 PM 53.6 °F 48.2 °F 82% 30.12 in 4.3 mi Calm Calm - N/A   Scattered Clouds
9:00 PM 54 °F 49 °F 79% 30.14 in 6 mi Calm Calm - -   Partly Cloudy
9:00 PM 53.6 °F 50.0 °F 88% 30.12 in 6.2 mi Calm Calm - N/A   Scattered Clouds
9:30 PM 51.8 °F 48.2 °F 88% 30.12 in 3.7 mi SSE 5.8 mph - N/A   Scattered Clouds
10:00 PM 50.0 °F 46.4 °F 87% 30.12 in 3.7 mi South 5.8 mph - N/A   Scattered Clouds
10:21 PM 50.0 °F 46.4 °F 87% 30.12 in 1.9 mi SSE 5.8 mph - N/A   Scattered Clouds
11:22 PM 50.0 °F 46.4 °F 87% 30.12 in 5.0 mi SSE 8.1 mph - N/A   Scattered Clouds
11:30 PM 50.0 °F 46.4 °F 87% 30.12 in 5.6 mi SSE 8.1 mph - N/A   Scattered Clouds
11:51 PM 50.0 °F 46.4 °F 87% 30.12 in 1.9 mi SSE 6.9 mph - N/A   Scattered Clouds